Location: Austin
(30.3000°N, 97.7500°W)
Time: 22:39:46
(UTC-05:00)

CZ-4C R/B - Pass Details

Date: 06 May 2026
Orbit: 475 x 1502 km, 63.4° (Epoch: 13 May)

Event Time Altitude Azimuth Distance (km) Brightness Sun altitude
Exits shadow 22:02:02 16° 213° (SSW) 1,391 3.3 -21.7°
Maximum altitude 22:04:59 79° 299° (WNW) 554 1.3 -22.2°
Drops below altitude 10° 22:09:23 10° 27° (NNE) 2,007 4.3 -23.0°
Sets 22:11:56 0° 28° (NNE) 3,066 5.2 -23.4°
